EW8555 Weather Reports


Display with metric or nautical units.
time (UTC)temp
F
wind
direction
speed
MPH
gust
MPH
rain 1hr
in
rain 24hr
in
rain mn
in
humidity
%
barometer
mb
20260505173017 65 5 4.0 9.0 0.00 0.01 0.01 73 1004.6
20260505171521 65 16 3.0 5.0 0.00 0.01 0.01 70 1004.5
20260505170018 65 11 2.0 5.0 0.00 0.01 0.01 70 1004.7
20260505164514 65 63 2.0 6.0 0.00 0.01 0.01 69 1004.8
20260505163012 66 5 4.0 8.0 0.00 0.01 0.01 69 1004.8
20260505161510 66 9 2.0 4.0 0.00 0.01 0.01 71 1005.0
20260505153006 66 48 1.0 5.0 0.00 0.01 0.01 72 1005.4
20260505151505 65 45 2.0 5.0 0.00 0.01 0.01 72 1005.4
20260505130109 65 53 1.0 4.0 0.00 0.01 0.01 77 1006.1
20260505124556 65 86 2.0 6.0 0.00 0.01 0.01 78 1006.4
20260505123047 64 167 2.0 4.0 0.00 0.01 0.01 82 1006.5
20260505121547 63 62 0.0 4.0 0.00 0.01 0.01 86 1006.6
20260505120039 61 165 1.0 5.0 0.00 0.01 0.01 88 1006.7
20260505114537 61 142 1.0 3.0 0.00 0.01 0.01 88 1006.8
20260505113036 61 147 1.0 2.0 0.00 0.01 0.01 89 1006.9
20260505111539 61 147 0.0 3.0 0.00 0.01 0.01 88 1007.0
20260505101533 61 121 1.0 3.0 0.01 0.01 0.01 87 1007.1
20260505100032 60 213 0.0 1.0 0.01 0.01 0.01 87 1007.2
20260505094534 60 213 1.0 3.0 0.00 0.00 0.00 86 1007.2
20260505093029 60 330 1.0 2.0 0.00 0.00 0.00 85 1007.1
20260505091529 60 329 0.0 2.0 0.00 0.00 0.00 85 1007.1
20260505090030 60 329 0.0 1.0 0.00 0.00 0.00 85 1007.2
20260505084527 60 329 1.0 2.0 0.00 0.00 0.00 86 1007.3
20260505083025 59 329 0.0 2.0 0.00 0.00 0.00 86 1007.3
20260505081539 59 329 1.0 3.0 0.00 0.00 0.00 87 1007.3
20260505080023 58 329 1.0 2.0 0.00 0.00 0.00 88 1007.5
20260505074522 58 329 0.0 3.0 0.00 0.00 0.00 89 1007.5
20260505073025 57 98 0.0 3.0 0.00 0.00 0.00 90 1007.5
20260505071542 57 98 0.0 2.0 0.00 0.00 0.00 90 1007.5
20260505070020 57 97 2.0 4.0 0.00 0.00 0.00 89 1007.6
20260505064524 56 95 2.0 7.0 0.00 0.00 0.00 89 1007.5
20260505063019 56 96 2.0 4.0 0.00 0.00 0.00 89 1007.5
20260505061519 56 96 1.0 3.0 0.00 0.00 0.00 89 1007.6
20260505060019 56 338 0.0 0.0 0.00 0.00 0.00 88 1007.6
20260505054517 56 338 1.0 2.0 0.00 0.00 0.00 88 1007.7
20260505053024 56 338 0.0 1.0 0.00 0.00 0.00 88 1007.7
20260505051529 56 338 0.0 1.0 0.00 0.00 0.00 88 1007.7
20260505041516 56 338 0.0 2.0 0.00 0.00 0.00 86 1007.7
20260505040011 57 338 1.0 3.0 0.00 0.00 0.00 85 1007.6
20260505034509 57 338 0.0 0.0 0.00 0.00 0.00 85 1007.7
20260505033011 57 338 0.0 1.0 0.00 0.00 0.00 85 1007.8
20260505031507 57 338 1.0 2.0 0.00 0.00 0.00 85 1007.8
20260505030018 57 338 0.0 2.0 0.00 0.00 0.00 85 1008.0
20260505024503 57 338 1.0 3.0 0.00 0.00 0.00 84 1008.1
20260505023002 57 338 0.0 2.0 0.00 0.00 0.00 84 1008.2
20260505021502 57 338 1.0 4.0 0.00 0.00 0.00 84 1008.2
20260505020105 57 338 2.0 3.0 0.00 0.00 0.00 83 1008.3
20260505014600 58 288 1.0 3.0 0.00 0.00 0.00 83 1008.4
20260505013058 58 288 1.0 3.0 0.00 0.00 0.00 82 1008.5
20260505011558 58 288 1.0 5.0 0.00 0.00 0.00 82 1008.6
20260505010103 58 278 5.0 9.0 0.00 0.00 0.00 83 1008.7
20260505004554 57 325 0.0 0.0 0.00 0.00 0.00 84 1008.5
20260505003056 57 325 0.0 0.0 0.00 0.00 0.00 83 1008.6
20260505001552 57 325 0.0 0.0 0.00 0.00 0.00 83 1008.8
20260505000058 57 325 0.0 0.0 0.00 0.00 0.00 83 1009.1
20260504234548 57 325 0.0 0.0 0.00 0.00 0.00 82 1008.9
20260504233049 58 325 0.0 0.0 0.00 0.00 0.00 81 1009.0
20260504231543 58 325 0.0 0.0 0.00 0.00 0.00 80 1009.3
20260504230042 58 325 0.0 0.0 0.00 0.00 0.00 80 1009.4
20260504224641 58 325 0.0 0.0 0.00 0.00 0.00 79 1009.6
20260504223037 60 325 0.0 0.0 0.00 0.00 0.00 76 1009.5
20260504221536 61 325 0.0 0.0 0.00 0.00 0.00 74 1009.4
20260504220032 61 325 0.0 0.0 0.00 0.00 0.00 74 1009.6
20260504214530 61 325 0.0 0.0 0.00 0.00 0.00 74 1009.5
20260504213030 62 325 0.0 0.0 0.00 0.00 0.00 72 1009.6
20260504211529 62 325 0.0 0.0 0.00 0.00 0.00 71 1009.6
20260504210030 63 325 0.0 0.0 0.00 0.00 0.00 71 1009.5
20260504204529 63 325 0.0 0.0 0.00 0.00 0.00 70 1009.7
20260504203025 64 325 0.0 0.0 0.00 0.00 0.00 68 1009.7
20260504201523 64 325 0.0 0.0 0.00 0.00 0.00 67 1009.7
20260504200036 65 325 0.0 0.0 0.00 0.00 0.00 65 1009.6
20260504194523 65 325 0.0 0.0 0.00 0.00 0.00 65 1009.6
20260504193022 65 325 0.0 0.0 0.00 0.00 0.00 63 1009.5
20260504191536 66 325 1.0 2.0 0.00 0.00 0.00 62 1009.4
20260504190022 66 325 1.0 3.0 0.00 0.00 0.00 61 1009.3
20260504184520 67 325 2.0 3.0 0.00 0.00 0.00 59 1009.3
20260504183034 68 325 0.0 2.0 0.00 0.00 0.00 58 1009.2
20260504181525 69 325 1.0 3.0 0.00 0.00 0.00 56 1009.2
20260504180021 70 304 0.0 0.0 0.00 0.00 0.00 53 1009.1
20260504174520 71 304 0.0 0.0 0.00 0.00 0.00 51 1009.0